State College, PA

10:17 AM EDT on May 29, 2017 (GMT -0400)
University Park

Weather History for KUNV - October, 2012

Change the Weather History Date:

Sunday, October 14, 2012

  Actual Average Record
Temperature  
Mean Temperature 60 °F -  
Max Temperature 71 °F 63 °F 82 °F (1930)
Min Temperature 50 °F 42 °F 26 °F (1934)
Degree Days  
Heating Degree Days 4    
Growing Degree Days 10 (Base 50)    
Moisture  
Dew Point 43 °F    
Average Humidity 59    
Maximum Humidity 67    
Minimum Humidity 46    
Precipitation  
Precipitation 0.00 in - - ()
Sea Level Pressure  
Sea Level Pressure 30.02 in    
Wind  
Wind Speed 7 mph (SSW)    
Max Wind Speed 13 mph    
Max Gust Speed 20 mph    
Visibility 10 miles    
Events      
Averages and records for this station are not official NWS values.
T = Trace of Precipitation, MM = Missing Value Source: NWS Daily Summary

Daily Weather History Graph

Daily Weather History Graph

Search for Another Location

Airport or City:

Trip Planner

Search our weather history database for the weather conditions in past years. The results will help you decide how hot, cold, wet, or windy it might be!

Date:

Astronomy

Oct. 14, 2012 Rise Set
Actual Time 7:22 AM EDT 6:31 PM EDT
Civil Twilight 6:54 AM EDT 6:59 PM EDT
Nautical Twilight 6:22 AM EDT 7:31 PM EDT
Astronomical Twilight 5:50 AM EDT 8:02 PM EDT
Moon 6:18 AM EDT (10/14) 5:50 PM EDT (10/14)
Length of Visible Light 12h 04m
Length of Day
11h 09m
Waning Crescent, 1% of the Moon is Illuminated
Oct 14
Waning Crescent
Oct 15
New
Oct 21
First Quarter
Oct 29
Full
Nov 6
Last Quarter

Hourly Weather History & Observations

Time (EDT) Temp. Dew Point Humidity Pressure Visibility Wind Dir Wind Speed Gust Speed Precip Events Conditions
12:15 AM 50.2 °F 34.5 °F 55% 30.15 in 10.0 mi SSW 6.9 mph - N/A   Scattered Clouds
12:35 AM 50.2 °F 35.1 °F 56% 30.16 in 10.0 mi SSW 6.9 mph - N/A   Scattered Clouds
1:15 AM 50.4 °F 35.4 °F 57% 30.15 in 10.0 mi SW 6.9 mph - N/A   Overcast
1:35 AM 50.5 °F 35.6 °F 57% 30.15 in 10.0 mi SSW 4.6 mph - N/A   Overcast
1:55 AM 50.7 °F 35.8 °F 57% 30.15 in 10.0 mi SSW 8.1 mph - N/A   Overcast
2:15 AM 50.9 °F 36.1 °F 57% 30.15 in 10.0 mi SSW 6.9 mph - N/A   Overcast
2:35 AM 51.1 °F 36.1 °F 57% 30.14 in 10.0 mi SSW 5.8 mph - N/A   Overcast
2:55 AM 51.1 °F 36.5 °F 57% 30.14 in 10.0 mi SSW 6.9 mph - N/A   Overcast
3:15 AM 51.1 °F 36.7 °F 58% 30.13 in 10.0 mi SW 5.8 mph - N/A   Overcast
3:55 AM 50.9 °F 37.0 °F 59% 30.12 in 10.0 mi SSW 6.9 mph - N/A   Overcast
4:15 AM 50.9 °F 37.4 °F 60% 30.12 in 10.0 mi SSW 4.6 mph - N/A   Scattered Clouds
4:35 AM 50.9 °F 37.9 °F 61% 30.12 in 10.0 mi SW 4.6 mph - N/A   Mostly Cloudy
4:55 AM 50.7 °F 38.5 °F 63% 30.12 in 10.0 mi SW 4.6 mph - N/A   Overcast
5:15 AM 50.9 °F 38.1 °F 62% 30.11 in 10.0 mi SW 4.6 mph - N/A   Mostly Cloudy
5:35 AM 50.9 °F 38.7 °F 63% 30.11 in 10.0 mi SW 3.5 mph - N/A   Overcast
5:53 AM 50.0 °F 39.2 °F 66% 30.10 in 10.0 mi West 5.8 mph - N/A   Overcast
6:53 AM 50.0 °F 39.2 °F 66% 30.11 in 10.0 mi West 5.8 mph - N/A   Overcast
7:53 AM 50.0 °F 39.2 °F 66% 30.12 in 10.0 mi WSW 5.8 mph - N/A   Overcast
8:53 AM 51.8 °F 41.0 °F 67% 30.14 in 10.0 mi WSW 5.8 mph - N/A   Mostly Cloudy
9:53 AM 53.6 °F 42.8 °F 67% 30.11 in 10.0 mi WSW 5.8 mph - N/A   Mostly Cloudy
10:53 AM 60.8 °F 44.6 °F 55% 30.10 in 10.0 mi SW 9.2 mph - N/A   Mostly Cloudy
11:53 AM 64.4 °F 46.4 °F 52% 30.08 in 10.0 mi SW 11.5 mph - N/A   Mostly Cloudy
12:58 PM 68.0 °F 46.4 °F 46% 30.03 in 10.0 mi SSW 9.2 mph - N/A   Scattered Clouds
1:53 PM 69.8 °F 48.2 °F 46% 30.00 in 10.0 mi SSW 11.5 mph - N/A   Scattered Clouds
2:53 PM 69.8 °F 48.2 °F 46% 29.97 in 10.0 mi SSW 12.7 mph - N/A   Clear
3:53 PM 71.6 °F 50.0 °F 46% 29.95 in 10.0 mi SSW 9.2 mph - N/A   Clear
4:53 PM 71.6 °F 50.0 °F 46% 29.92 in 10.0 mi SSW 8.1 mph 18.4 mph N/A   Partly Cloudy
5:53 PM 68.0 °F 48.2 °F 49% 29.92 in 10.0 mi SSW 9.2 mph 19.6 mph N/A   Partly Cloudy
6:53 PM 64.4 °F 48.2 °F 56% 29.91 in 10.0 mi SSW 12.7 mph 18.4 mph N/A   Partly Cloudy
7:53 PM 62.6 °F 48.2 °F 59% 29.90 in 10.0 mi SSW 8.1 mph - N/A   Clear
8:53 PM 62.6 °F 50.0 °F 63% 29.89 in 10.0 mi SSW 4.6 mph - N/A   Scattered Clouds
9:15 PM 62.6 °F 49.5 °F 62% 29.88 in 10.0 mi South 6.9 mph - N/A   Clear
9:35 PM 62.8 °F 49.6 °F 62% 29.87 in 10.0 mi South 4.6 mph - N/A   Clear
9:55 PM 62.6 °F 49.6 °F 63% 29.86 in 10.0 mi SSW 5.8 mph - N/A   Clear
10:15 PM 62.8 °F 50.0 °F 63% 29.86 in 10.0 mi SSW 6.9 mph - N/A   Clear
10:35 PM 62.8 °F 50.0 °F 63% 29.86 in 10.0 mi South 6.9 mph - N/A   Clear
10:55 PM 62.8 °F 50.0 °F 63% 29.85 in 10.0 mi South 5.8 mph - N/A   Mostly Cloudy
11:15 PM 62.8 °F 50.2 °F 63% 29.84 in 10.0 mi SSW 5.8 mph - N/A   Mostly Cloudy
11:35 PM 63.0 °F 50.0 °F 63% 29.83 in 10.0 mi South 9.2 mph - N/A   Mostly Cloudy
11:55 PM 62.6 °F 50.0 °F 63% 29.82 in 10.0 mi SSW 9.2 mph - N/A   Overcast